Regional Weather Roundup
Issued by NWS

Home | Current Version | Previous Version | Text Only | Print | Product List | Glossary On
Versions: 1 2 3 4 5 6 7 8 9 10 11 12 13 14 15 16 17 18 19 20 21 22 23 24 25 26 27 28 29 30 31 32 33 34 35 36 37 38 39 40 41 42 43 44 45 46 47 48 49 50
000
ASUS44 KOUN 050610
RWROK

WEATHER ROUNDUP FOR OKLAHOMA
NATIONAL WEATHER SERVICE NORMAN OK
100 AM CDT TUE MAY 05 2015

NOTE: "FAIR" INDICATES FEW OR NO CLOUDS BELOW 12,000 FEET WITH NO
      SIGNIFICANT WEATHER AND/OR OBSTRUCTIONS TO VISIBILITY.

OKZ001>007-009>012-014-015-017-050700-
NORTHWEST OKLAHOMA AND THE PANHANDLE

CITY           SKY/WX    TMP DP  RH WIND       PRES   REMARKS
GAGE           CLOUDY    65  56  72 S16       29.99F
6HR MIN TEMP:  65; 6HR MAX TEMP:  76;

GUYMON         CLOUDY    60  57  89 NE6       30.01S
ENID/WOODRING  PTCLDY    63  59  88 SE9       30.04S
$$

OKZ016-021>023-033>039-044-045-050700-
SOUTHWEST OKLAHOMA

CITY           SKY/WX    TMP DP  RH WIND       PRES   REMARKS
LAWTON/REGL    CLOUDY    66  58  75 SE9       30.02R
6HR MIN TEMP:  66; 6HR MAX TEMP:  77;

FREDERICK      CLOUDY    68  58  70 SE13      29.97R
CLINTON        CLOUDY    67  57  70 SE15      30.02S
HOBART         CLOUDY    67  58  72 S15       30.01R
$$

OKZ018>020-024>031-050700-
CENTRAL OKLAHOMA

CITY           SKY/WX    TMP DP  RH WIND       PRES   REMARKS
OKLAHOMA CITY  MOCLDY    65  56  72 SE9       30.04S
6HR MIN TEMP:  65; 6HR MAX TEMP:  77;

OKC/WILEY POST PTCLDY    69  56  62 S15       30.04S
OKC/TINKER AFB MOCLDY    64  56  73 SE7       30.05R
STILLWATER     CLEAR     64  56  75 SE7       30.07R
GUTHRIE        PTCLDY    65  57  75 SE7       30.05S
$$

OKZ008-013-054>072-050700-
NORTHEAST OKLAHOMA

CITY           SKY/WX    TMP DP  RH WIND       PRES   REMARKS
TULSA          MOCLDY    63  55  75 SE7       30.08R
6HR MIN TEMP:  63; 6HR MAX TEMP:  80;

TULSA/JONES    PTCLDY    60  56  86 CALM      30.09R
PONCA CITY     PTCLDY    69  57  65 SE13      30.06R
BARTLESVILLE   PTCLDY    56  54  93 CALM      30.10R
MUSKOGEE       CLEAR     63  57  81 SE3       30.11R
$$

OKZ032-040>043-046>053-073>077-050700-
SOUTH CENTRAL/SOUTHEAST OKLAHOMA

CITY           SKY/WX    TMP DP  RH WIND       PRES   REMARKS
ARDMORE/DWNTWN MOCLDY    63  54  72 CALM      30.05S
MCALESTER      PTCLDY    61  54  77 E5        30.09R
$$



USA.gov is the U.S. government's official web portal to all federal, state and local government web resources and services.